| time (UTC) | temp C | wind direction | speed KPH | gust KPH | rain 1hr cm | rain 24hr cm | rain mn cm | humidity % | barometer mb |
| 20260502203047 | 28 | 103 | 3.2 | 6.4 | 0.00 | 0.00 | 0.00 | 24 | 1020.4 |
| 20260502202022 | 29 | 182 | 3.2 | 9.7 | 0.00 | 0.00 | 0.00 | 25 | 1020.5 |
| 20260502201016 | 28 | 64 | 6.4 | 14.5 | 0.00 | 0.00 | 0.00 | 24 | 1020.6 |
| 20260502200027 | 28 | 13 | 3.2 | 6.4 | 0.00 | 0.00 | 0.00 | 25 | 1020.6 |
| 20260502195041 | 28 | 16 | 4.8 | 11.3 | 0.00 | 0.00 | 0.00 | 25 | 1020.8 |
| 20260502194017 | 28 | 252 | 4.8 | 12.9 | 0.00 | 0.00 | 0.00 | 26 | 1020.9 |
| 20260502193026 | 28 | 307 | 3.2 | 6.4 | 0.00 | 0.00 | 0.00 | 25 | 1020.9 |
| 20260502192022 | 28 | 260 | 4.8 | 12.9 | 0.00 | 0.00 | 0.00 | 26 | 1021.0 |
| 20260502191017 | 28 | 83 | 3.2 | 9.7 | 0.00 | 0.00 | 0.00 | 25 | 1021.1 |
| 20260502190027 | 28 | 246 | 3.2 | 12.9 | 0.00 | 0.00 | 0.00 | 25 | 1021.3 |
| 20260502185022 | 28 | 320 | 3.2 | 11.3 | 0.00 | 0.00 | 0.00 | 26 | 1021.4 |
| 20260502184017 | 28 | 283 | 4.8 | 14.5 | 0.00 | 0.00 | 0.00 | 27 | 1021.5 |
| 20260502183028 | 27 | 250 | 3.2 | 12.9 | 0.00 | 0.00 | 0.00 | 27 | 1021.6 |
| 20260502182043 | 27 | 78 | 4.8 | 12.9 | 0.00 | 0.00 | 0.00 | 27 | 1021.8 |
| 20260502181018 | 27 | 99 | 3.2 | 9.7 | 0.00 | 0.00 | 0.00 | 28 | 1021.9 |
| 20260502164020 | 26 | 53 | 3.2 | 9.7 | 0.00 | 0.00 | 0.00 | 34 | 1022.7 |
| 20260502163036 | 25 | 226 | 3.2 | 14.5 | 0.00 | 0.00 | 0.00 | 35 | 1022.7 |
| 20260502162046 | 25 | 11 | 3.2 | 6.4 | 0.00 | 0.00 | 0.00 | 35 | 1022.6 |
| 20260502161022 | 24 | 274 | 3.2 | 6.4 | 0.00 | 0.00 | 0.00 | 38 | 1022.6 |
| 20260502152028 | 22 | 268 | 6.4 | 11.3 | 0.00 | 0.00 | 0.00 | 46 | 1022.6 |
| 20260502151023 | 22 | 261 | 3.2 | 9.7 | 0.00 | 0.00 | 0.00 | 48 | 1022.5 |
| 20260502123022 | 10 | 240 | 0.0 | 1.6 | 0.00 | 0.00 | 0.00 | 93 | 1021.4 |
| 20260502122016 | 9 | 0.0 | 0.0 | 0.00 | 0.00 | 0.00 | 94 | 1021.3 | |
| 20260502121026 | 9 | 240 | 0.0 | 1.6 | 0.00 | 0.00 | 0.00 | 94 | 1021.2 |
| 20260502115017 | 8 | 240 | 0.0 | 1.6 | 0.00 | 0.00 | 0.00 | 94 | 1020.6 |
| 20260502114027 | 8 | 239 | 0.0 | 1.6 | 0.00 | 0.00 | 0.00 | 94 | 1020.4 |
| 20260502113022 | 8 | 0.0 | 0.0 | 0.00 | 0.00 | 0.00 | 94 | 1020.2 | |
| 20260502112017 | 8 | 0.0 | 0.0 | 0.00 | 0.00 | 0.00 | 94 | 1020.0 | |
| 20260502111028 | 8 | 0.0 | 0.0 | 0.00 | 0.00 | 0.00 | 94 | 1020.0 | |
| 20260502110022 | 8 | 0.0 | 0.0 | 0.00 | 0.00 | 0.00 | 93 | 1019.9 | |
| 20260502105037 | 8 | 0.0 | 0.0 | 0.00 | 0.00 | 0.00 | 93 | 1020.0 | |
| 20260502104027 | 8 | 0.0 | 0.0 | 0.00 | 0.00 | 0.00 | 92 | 1019.7 | |
| 20260502103022 | 8 | 0.0 | 0.0 | 0.00 | 0.00 | 0.00 | 92 | 1019.7 | |
| 20260502102037 | 8 | 239 | 0.0 | 1.6 | 0.00 | 0.00 | 0.00 | 93 | 1019.7 |
| 20260502101027 | 8 | 240 | 0.0 | 3.2 | 0.00 | 0.03 | 0.00 | 93 | 1019.9 |
| 20260502091028 | 8 | 233 | 0.0 | 1.6 | 0.00 | 0.03 | 0.00 | 91 | 1019.2 |
| 20260502071018 | 10 | 246 | 0.0 | 3.2 | 0.00 | 0.03 | 0.00 | 89 | 1019.4 |
| 20260502070031 | 10 | 244 | 0.0 | 1.6 | 0.00 | 0.03 | 0.00 | 88 | 1019.4 |
| 20260502065025 | 10 | 0.0 | 0.0 | 0.00 | 0.03 | 0.00 | 88 | 1019.4 | |
| 20260502064027 | 10 | 0.0 | 0.0 | 0.00 | 0.03 | 0.00 | 87 | 1019.4 | |
| 20260502063035 | 10 | 0.0 | 0.0 | 0.00 | 0.03 | 0.00 | 87 | 1019.5 | |
| 20260502062037 | 10 | 0.0 | 0.0 | 0.00 | 0.03 | 0.00 | 84 | 1019.6 | |
| 20260502061031 | 10 | 0.0 | 0.0 | 0.00 | 0.03 | 0.00 | 84 | 1019.7 | |
| 20260502060040 | 11 | 244 | 0.0 | 1.6 | 0.00 | 0.03 | 0.00 | 85 | 1019.7 |
| 20260502055027 | 11 | 245 | 0.0 | 1.6 | 0.00 | 0.03 | 0.00 | 84 | 1019.8 |
| 20260502054035 | 11 | 269 | 1.6 | 3.2 | 0.00 | 0.03 | 0.00 | 84 | 1019.8 |
| 20260502053034 | 11 | 64 | 1.6 | 1.6 | 0.00 | 0.03 | 0.00 | 84 | 1019.6 |
| 20260502052526 | 11 | 0.0 | 0.0 | 0.00 | 0.03 | 0.00 | 81 | 1019.5 | |
| 20260502051525 | 11 | 64 | 0.0 | 1.6 | 0.00 | 0.03 | 0.00 | 81 | 1019.5 |
| 20260502050558 | 11 | 64 | 0.0 | 1.6 | 0.00 | 0.03 | 0.00 | 81 | 1019.6 |
| 20260502045526 | 11 | 64 | 0.0 | 1.6 | 0.00 | 0.03 | 0.03 | 81 | 1019.5 |
| 20260502044521 | 11 | 64 | 0.0 | 1.6 | 0.00 | 0.03 | 0.03 | 81 | 1019.4 |
| 20260502043529 | 12 | 0.0 | 0.0 | 0.00 | 0.03 | 0.03 | 79 | 1019.4 | |
| 20260502042523 | 12 | 0.0 | 0.0 | 0.00 | 0.03 | 0.03 | 77 | 1019.5 | |
| 20260502041531 | 12 | 64 | 0.0 | 1.6 | 0.00 | 0.03 | 0.03 | 77 | 1019.4 |
| 20260502040529 | 12 | 0.0 | 0.0 | 0.00 | 0.03 | 0.03 | 75 | 1019.4 | |
| 20260502035522 | 12 | 0.0 | 0.0 | 0.00 | 0.03 | 0.03 | 74 | 1019.4 | |
| 20260502034611 | 13 | 64 | 0.0 | 1.6 | 0.00 | 0.03 | 0.03 | 72 | 1019.2 |
| 20260502033526 | 13 | 0.0 | 0.0 | 0.00 | 0.03 | 0.03 | 69 | 1019.1 | |
| 20260502032523 | 13 | 0.0 | 0.0 | 0.00 | 0.03 | 0.03 | 69 | 1019.3 | |
| 20260502031517 | 14 | 64 | 0.0 | 1.6 | 0.00 | 0.03 | 0.03 | 67 | 1019.2 |
| 20260502030526 | 14 | 68 | 1.6 | 3.2 | 0.00 | 0.03 | 0.03 | 66 | 1018.9 |
| 20260502025521 | 15 | 60 | 1.6 | 3.2 | 0.00 | 0.03 | 0.03 | 65 | 1018.9 |
| 20260502024516 | 15 | 79 | 1.6 | 3.2 | 0.00 | 0.03 | 0.03 | 65 | 1018.7 |
| 20260502023526 | 15 | 58 | 1.6 | 3.2 | 0.00 | 0.03 | 0.03 | 65 | 1018.6 |
| 20260502022521 | 15 | 13 | 1.6 | 3.2 | 0.00 | 0.03 | 0.03 | 63 | 1018.5 |
| 20260502021536 | 15 | 72 | 1.6 | 3.2 | 0.00 | 0.03 | 0.03 | 63 | 1018.3 |
| 20260502020526 | 15 | 62 | 1.6 | 4.8 | 0.00 | 0.03 | 0.03 | 62 | 1018.2 |
| 20260502015541 | 15 | 60 | 3.2 | 9.7 | 0.00 | 0.03 | 0.03 | 61 | 1018.0 |
| 20260502014516 | 16 | 70 | 4.8 | 6.4 | 0.00 | 0.03 | 0.03 | 61 | 1017.7 |
| 20260502013526 | 16 | 64 | 4.8 | 9.7 | 0.00 | 0.03 | 0.03 | 61 | 1017.7 |
| 20260502012520 | 16 | 89 | 3.2 | 6.4 | 0.00 | 0.03 | 0.03 | 60 | 1017.5 |
| 20260502011516 | 16 | 84 | 4.8 | 11.3 | 0.00 | 0.03 | 0.03 | 60 | 1017.3 |
| 20260502010526 | 16 | 65 | 3.2 | 9.7 | 0.00 | 0.03 | 0.03 | 60 | 1017.2 |
| 20260502005541 | 16 | 82 | 4.8 | 6.4 | 0.00 | 0.03 | 0.03 | 58 | 1017.1 |
| 20260502004516 | 16 | 62 | 6.4 | 14.5 | 0.00 | 0.03 | 0.03 | 57 | 1016.6 |
| 20260502003526 | 16 | 59 | 8.0 | 14.5 | 0.00 | 0.03 | 0.03 | 56 | 1016.7 |
| 20260502002541 | 17 | 80 | 8.0 | 17.7 | 0.00 | 0.03 | 0.03 | 55 | 1016.5 |
| 20260502001516 | 17 | 61 | 6.4 | 9.7 | 0.00 | 0.03 | 0.03 | 56 | 1016.5 |
| 20260502000526 | 17 | 65 | 6.4 | 11.3 | 0.00 | 0.03 | 0.03 | 55 | 1016.3 |
| 20260501235521 | 17 | 55 | 6.4 | 11.3 | 0.00 | 0.03 | 0.03 | 54 | 1016.2 |
| 20260501234516 | 18 | 58 | 4.8 | 11.3 | 0.00 | 0.03 | 0.03 | 54 | 1016.4 |
| 20260501233526 | 18 | 82 | 4.8 | 12.9 | 0.00 | 0.03 | 0.03 | 53 | 1016.2 |
| 20260501232541 | 18 | 67 | 8.0 | 16.1 | 0.00 | 0.03 | 0.03 | 52 | 1016.0 |
| 20260501231517 | 18 | 65 | 9.7 | 22.5 | 0.00 | 0.03 | 0.03 | 54 | 1015.8 |
| 20260501230547 | 18 | 70 | 6.4 | 14.5 | 0.00 | 0.03 | 0.03 | 55 | 1015.9 |
| 20260501225522 | 18 | 63 | 8.0 | 17.7 | 0.00 | 0.03 | 0.03 | 54 | 1015.8 |
| 20260501224517 | 18 | 63 | 6.4 | 11.3 | 0.00 | 0.03 | 0.03 | 54 | 1015.7 |
| 20260501223528 | 18 | 68 | 4.8 | 12.9 | 0.00 | 0.03 | 0.03 | 53 | 1015.5 |
| 20260501222522 | 18 | 77 | 4.8 | 11.3 | 0.00 | 0.03 | 0.03 | 51 | 1015.6 |
| 20260501221517 | 19 | 82 | 6.4 | 12.9 | 0.00 | 0.03 | 0.03 | 50 | 1015.5 |
| 20260501220528 | 19 | 64 | 8.0 | 14.5 | 0.00 | 0.03 | 0.03 | 49 | 1015.5 |
| 20260501215522 | 19 | 60 | 9.7 | 17.7 | 0.00 | 0.03 | 0.03 | 48 | 1015.5 |
| 20260501214517 | 19 | 60 | 9.7 | 20.9 | 0.00 | 0.03 | 0.03 | 48 | 1015.5 |
| 20260501213527 | 19 | 67 | 8.0 | 16.1 | 0.00 | 0.03 | 0.03 | 46 | 1015.6 |
| 20260501212522 | 19 | 63 | 12.9 | 27.4 | 0.00 | 0.03 | 0.03 | 44 | 1015.5 |
| 20260501211517 | 20 | 65 | 14.5 | 25.7 | 0.00 | 0.05 | 0.03 | 41 | 1015.6 |
| 20260501210527 | 21 | 53 | 9.7 | 29.0 | 0.00 | 0.05 | 0.03 | 42 | 1015.5 |
| 20260501205522 | 21 | 67 | 6.4 | 16.1 | 0.00 | 0.05 | 0.03 | 43 | 1015.6 |
| 20260501204517 | 21 | 60 | 4.8 | 11.3 | 0.00 | 0.05 | 0.03 | 46 | 1015.7 |